Wind_Speed
61 60 61 62 63 63 63 64 64 64 64 65 65 66 66 67 67 68 69 70 71 71 72 72 72 72 72 74 75 75 76 77 78 79 80 81 82 82 80 76 73 71 70 69 66 62 61 61 63 65 65 63 62 62 60 61 67 65 59 59 58 54 50 47 45 42 41 40 40 41 40 38 35 31 28 27 27 27 26 25 24 23 22 23 23
62 62 63 63 64 64 65 65 65 66 66 67 67 68 69 69 70 70 71 72 72 72 73 73 73 73 74 76 76 76 77 78 79 80 81 82 82 80 76 73 70 69 69 68 64 61 62 64 66 66 64 63 61 60 59 63 66 62 59 58 55 51 47 44 42 39 38 38 39 40 38 37 33 29 27 27 27 26 25 23 22 21 21 21 22
63 64 65 65 66 66 67 67 67 68 68 69 70 70 71 72 72 72 72 73 73 74 74 74 73 74 75 76 76 77 79 80 81 81 82 82 81 77 72 70 69 70 71 69 66 64 65 66 66 63 62 62 61 59 60 64 63 59 58 56 51 47 45 44 41 37 36 36 36 36 36 34 31 28 26 26 25 25 23 21 20 20 20 20 21
64 66 67 68 68 69 69 69 69 70 71 71 72 72 73 73 73 73 73 74 75 75 75 75 74 75 76 76 77 79 80 81 81 81 81 80 77 73 71 72 73 76 75 72 69 67 66 65 63 62 61 61 59 58 61 62 59 57 56 51 47 45 44 43 40 39 38 36 34 34 33 32 29 26 25 24 23 22 21 20 19 19 19 20 21
67 68 69 70 70 71 71 71 71 72 73 73 74 74 74 74 74 74 75 76 76 76 76 75 75 76 77 78 79 80 81 82 81 80 79 76 75 74 75 76 77 77 75 72 69 67 64 61 62 62 62 60 58 59 61 58 56 55 51 47 45 44 43 42 41 41 39 36 33 32 31 29 26 24 22 21 20 20 20 20 19 19 19 20 21
70 70 70 71 72 72 72 73 73 74 75 75 76 75 75 75 75 76 76 77 77 77 76 76 77 78 78 79 81 81 81 80 79 77 76 75 75 76 76 75 74 73 72 70 67 64 62 61 63 62 60 58 58 59 58 54 52 50 46 44 44 43 42 41 40 39 37 35 33 31 29 26 23 21 20 19 20 20 20 20 19 18 19 20 21
72 72 72 73 74 74 74 74 75 75 76 77 77 77 77 76 77 77 77 78 77 77 78 79 79 80 80 81 81 80 79 77 75 75 75 75 76 76 74 72 72 71 68 66 63 61 61 62 62 59 57 57 58 57 53 50 48 45 44 43 41 39 38 38 38 37 36 33 31 29 27 24 21 19 19 19 20 21 20 19 18 18 19 20 20
73 73 74 75 75 75 76 76 77 77 78 78 78 78 78 78 78 78 78 78 78 79 80 81 82 82 82 81 79 76 75 74 75 76 77 76 75 73 70 70 70 67 63 61 61 61 61 61 60 56 56 57 56 51 47 45 44 43 42 40 39 37 36 36 36 36 34 32 29 28 26 23 20 19 19 20 21 21 20 18 18 18 20 20 20
74 75 76 76 77 77 77 78 78 78 79 79 80 80 80 80 80 79 79 79 80 81 83 84 84 83 81 77 74 73 74 76 77 77 76 74 71 68 68 69 66 61 59 60 61 61 60 58 56 55 56 55 50 45 42 41 41 41 40 39 38 36 35 35 35 34 33 31 29 26 24 22 20 20 20 20 21 21 19 18 18 19 20 20 19
75 76 77 77 78 78 78 79 79 80 80 81 81 81 82 82 81 80 80 80 81 83 83 83 81 79 76 74 74 75 77 77 76 73 71 68 66 66 68 67 62 60 60 60 60 59 57 55 53 54 54 50 45 41 40 40 41 40 39 39 36 34 34 34 34 34 33 31 28 26 24 22 20 20 20 20 21 20 19 19 19 19 20 20 19
77 77 77 78 78 79 80 79 80 79 78 78 77 77 78 79 79 79 80 80 81 80 79 77 75 74 74 75 76 77 76 73 70 67 66 65 66 68 68 66 62 61 60 60 58 57 54 52 53 54 51 46 42 40 39 40 40 39 39 36 33 33 33 33 34 34 33 32 29 26 24 22 21 21 21 20 20 20 20 19 19 20 20 20 19
79 78 78 77 76 76 75 74 72 70 70 69 68 68 70 71 73 75 76 76 74 74 74 74 75 75 76 78 78 76 73 70 67 66 66 67 68 67 65 62 60 59 59 59 57 55 52 51 53 52 48 44 41 40 38 38 38 39 37 34 32 32 33 34 34 35 34 32 30 27 25 24 23 23 22 20 19 20 20 20 20 20 20 20 19
80 79 77 75 71 67 65 64 61 60 64 64 63 63 64 66 67 69 69 68 71 75 78 79 80 80 80 79 77 75 73 71 69 68 68 68 67 63 60 57 57 59 59 58 56 53 51 52 53 50 47 43 40 38 37 38 39 38 35 33 32 32 34 34 34 35 35 33 30 28 26 24 24 24 23 21 19 20 21 21 21 21 21 19 18
81 80 78 76 71 66 64 63 61 62 66 65 65 64 64 66 66 66 66 70 77 81 82 81 80 78 77 77 76 74 72 70 68 68 68 66 63 59 56 56 58 60 59 57 54 52 52 53 51 49 46 42 39 37 36 38 37 34 33 33 33 33 34 34 34 34 35 34 31 28 26 25 24 25 25 23 20 20 21 21 21 22 21 19 19
82 81 80 79 77 75 75 76 75 76 76 72 72 73 73 74 72 72 73 78 83 83 81 78 75 75 74 74 72 70 67 65 65 65 64 61 58 55 55 58 59 58 57 55 52 51 52 51 50 48 45 41 39 37 37 36 34 31 33 34 34 35 34 32 33 33 35 35 31 28 27 25 24 25 26 25 22 20 21 22 22 22 21 19 19
83 83 82 81 80 80 82 83 83 83 82 78 78 80 79 79 78 79 80 83 83 80 76 72 71 72 72 71 69 66 64 63 63 61 58 56 54 54 57 58 57 56 55 52 51 51 50 49 50 48 45 42 39 37 36 34 32 31 33 35 36 35 32 31 32 32 35 35 31 28 27 26 24 24 25 26 24 22 21 21 22 22 21 19 19
84 84 83 82 82 82 83 83 83 83 82 80 81 81 81 80 80 81 82 83 79 74 71 68 69 70 69 68 66 64 63 63 61 58 55 54 54 57 57 55 55 53 50 49 50 49 48 50 51 49 45 42 39 36 34 33 32 32 34 36 35 33 29 31 31 30 33 34 31 28 28 27 25 24 24 25 24 22 21 21 21 21 20 19 19
84 84 83 83 83 84 84 83 83 83 82 82 81 81 81 81 81 80 80 77 73 71 69 68 69 69 68 66 65 65 64 62 58 55 55 56 57 57 54 53 52 49 47 48 48 48 49 51 51 48 44 40 37 34 33 33 31 32 36 36 34 31 29 31 31 29 31 32 30 29 29 28 26 25 24 24 24 23 21 20 21 21 20 19 19
82 82 82 83 84 84 83 83 82 82 81 81 80 80 79 79 78 77 75 72 71 70 70 70 70 69 68 67 66 65 63 61 57 55 56 57 56 55 54 51 47 45 46 46 47 49 51 50 49 46 42 38 36 33 33 33 32 34 36 34 33 33 31 29 29 29 31 31 30 28 28 28 27 25 24 23 23 22 21 20 20 20 19 19 19
80 80 81 82 83 82 82 81 81 80 79 79 78 77 76 76 75 74 73 72 71 70 70 69 68 67 65 64 64 64 62 59 56 56 55 54 53 53 51 47 44 45 45 46 49 50 49 48 47 44 41 38 36 33 32 33 34 36 36 33 34 34 32 28 27 29 30 31 29 27 27 28 27 26 24 23 22 21 20 19 19 19 19 18 19
79 79 80 81 82 81 81 80 80 78 77 76 75 74 73 73 72 72 71 70 69 68 66 65 64 63 61 61 62 61 59 57 56 55 53 51 51 50 47 44 44 45 46 50 50 47 47 46 44 42 40 39 35 32 32 34 36 38 35 33 34 33 30 28 27 29 29 30 29 27 26 26 26 25 24 23 22 20 19 19 19 19 18 18 19
77 77 79 80 80 80 79 78 77 75 74 72 71 70 69 68 68 69 69 67 65 63 61 60 60 59 59 59 60 59 58 57 55 52 50 49 49 47 45 45 47 49 50 51 47 44 44 44 42 41 40 39 36 34 34 36 37 38 35 33 34 31 29 28 27 28 29 30 30 27 25 25 25 24 24 24 22 20 19 18 18 18 18 18 19
75 76 78 78 78 77 76 75 74 72 70 68 66 65 65 65 66 66 64 62 60 57 55 55 55 56 57 58 58 58 58 56 53 49 48 48 48 47 47 51 52 50 47 46 43 42 41 41 41 40 40 39 38 38 37 36 37 37 35 33 32 31 32 31 29 29 31 32 30 26 24 24 24 24 24 24 23 20 19 18 18 18 19 19 20
75 76 77 78 77 75 74 73 71 70 68 66 64 63 63 63 62 61 58 56 54 53 53 54 54 54 54 55 54 52 52 52 51 50 49 49 49 50 53 53 49 43 40 41 41 41 40 39 39 40 40 40 41 41 38 37 38 37 35 34 33 34 35 33 30 29 31 31 29 24 23 23 24 24 24 24 24 22 19 19 19 20 20 21 21
73 74 75 75 74 73 71 69 67 65 64 62 61 61 61 60 60 58 57 55 53 53 55 57 57 55 53 54 52 47 46 48 50 51 51 50 49 50 50 45 40 38 39 41 40 40 40 39 40 40 41 42 42 41 39 39 39 38 36 36 37 36 34 33 31 29 29 28 26 23 22 23 24 24 23 23 23 23 20 18 19 21 21 21 22
62 62 64 66 65 64 62 60 58 58 59 59 59 59 59 58 57 57 56 56 55 56 57 57 57 55 54 55 53 47 45 48 50 50 50 49 49 47 44 39 37 37 38 40 41 41 42 42 42 41 42 42 42 41 40 40 40 39 39 40 40 38 37 36 33 31 30 27 24 22 21 22 23 24 23 22 21 22 20 19 19 20 21 22 22
62 61 60 57 53 50 49 51 53 55 58 58 58 57 56 55 55 56 56 57 57 56 56 54 53 53 53 54 52 47 46 48 49 49 50 50 49 47 43 41 39 39 40 43 44 44 44 44 43 42 42 42 42 42 41 42 41 41 42 43 43 43 41 38 33 31 29 26 23 21 20 21 23 24 23 22 20 20 20 19 19 20 21 22 23
66 66 63 57 54 52 51 53 55 57 57 56 55 55 54 55 55 56 57 57 57 56 54 53 52 52 51 51 50 47 46 48 48 49 51 51 49 48 45 44 43 44 47 47 46 45 44 43 43 42 41 40 40 40 41 42 41 42 43 45 46 43 38 33 30 28 26 25 23 21 20 21 22 23 24 23 21 20 19 19 20 21 21 23 24
64 64 63 61 61 61 59 57 56 56 56 54 54 54 55 56 57 58 58 58 57 55 53 51 51 51 49 47 46 46 46 47 48 49 50 50 49 48 46 46 47 49 49 48 46 45 43 42 41 40 38 36 36 38 39 39 40 42 44 44 43 39 33 31 29 27 26 24 23 22 22 22 22 23 23 23 22 20 19 19 19 20 21 22 23
63 63 62 62 62 63 62 59 57 58 58 57 55 55 57 58 59 59 59 58 55 53 51 50 49 49 48 44 44 46 46 48 50 52 51 50 49 48 48 48 49 50 49 47 45 43 42 40 39 38 36 35 37 39 39 40 42 44 45 43 39 35 32 30 29 28 27 26 26 24 23 22 21 21 21 21 20 20 20 19 19 19 20 21 22
62 62 62 62 62 61 60 60 60 61 61 59 57 57 58 58 58 57 55 53 51 51 51 50 48 48 47 46 47 49 50 52 55 55 53 51 50 49 50 49 50 49 47 45 43 42 41 40 39 39 38 39 41 42 42 43 45 45 43 38 35 33 31 29 28 28 27 27 26 26 25 23 19 18 19 19 19 19 20 20 20 20 21 22 23
61 62 62 61 60 59 58 58 60 60 60 60 59 59 58 58 58 56 54 53 52 52 52 51 49 48 49 50 51 51 53 56 57 56 53 52 50 50 50 49 48 47 45 44 43 41 40 40 40 40 40 42 43 43 45 46 45 44 39 33 32 32 30 28 27 26 26 25 25 25 23 21 19 18 19 20 20 20 20 21 21 22 22 23 24
61 60 60 58 57 57 57 57 58 58 59 60 60 59 57 57 56 54 54 54 53 52 51 50 49 49 50 52 52 52 53 55 55 54 53 51 49 49 49 48 46 45 43 43 42 41 41 41 41 41 41 43 44 45 47 46 44 40 34 30 31 31 29 27 24 24 24 23 21 20 20 21 21 20 21 22 22 22 22 22 23 23 23 24 24
59 58 58 57 56 56 56 56 56 55 56 57 58 56 55 54 53 53 53 53 51 50 50 50 50 51 52 52 52 52 52 53 52 51 50 49 48 47 46 45 43 42 41 40 40 40 40 40 40 40 41 42 44 46 47 45 42 37 32 30 29 29 26 25 23 22 21 19 18 18 19 20 21 21 22 23 24 25 25 25 26 26 26 26 27
57 57 56 55 54 54 54 54 53 52 53 53 53 52 53 53 53 53 52 51 50 51 52 52 53 53 53 52 52 52 52 52 50 48 46 46 45 44 42 41 39 39 39 39 39 39 38 38 38 39 41 43 45 46 46 44 40 35 31 29 28 26 23 23 22 19 17 17 17 18 19 19 20 20 21 22 23 25 26 27 27 27 27 28 28
54 54 53 52 51 52 52 52 51 50 50 49 50 51 52 51 51 52 52 51 51 52 53 54 54 53 52 50 50 50 50 48 46 44 43 42 41 40 40 39 40 40 40 39 38 38 38 38 39 40 42 44 46 46 45 42 38 34 30 28 26 23 21 23 22 19 17 15 16 18 18 18 18 19 20 21 22 24 25 26 26 26 27 27 28
49 48 49 49 47 47 46 46 46 46 47 48 48 48 48 48 49 51 51 50 49 50 51 52 51 50 48 47 47 46 45 43 42 41 40 39 38 38 39 39 40 40 40 39 39 38 39 41 41 42 44 45 46 46 43 40 37 32 28 27 26 23 22 23 23 21 18 15 16 19 20 19 19 20 21 21 22 22 24 24 25 25 27 27 28
44 44 44 44 42 42 42 40 39 39 41 42 42 43 43 43 44 44 44 43 44 45 46 46 46 45 44 44 43 42 40 39 38 37 37 36 36 37 38 39 39 40 40 41 41 41 42 43 43 43 45 46 46 45 42 38 35 30 27 25 24 23 22 23 23 21 18 16 17 19 20 23 23 22 21 21 22 23 24 25 26 28 28 28 29
42 45 43 42 41 41 39 37 36 37 40 41 41 41 39 37 38 38 38 39 41 41 42 42 42 41 40 40 39 38 37 36 35 34 34 35 36 37 38 39 41 41 42 43 43 43 44 45 46 46 47 47 45 43 40 35 31 28 27 25 23 22 23 25 25 23 21 18 16 15 16 20 22 23 24 23 24 24 26 28 29 30 29 29 31
42 46 43 41 41 40 38 39 39 41 42 41 39 37 35 35 36 37 38 37 36 36 37 38 38 38 38 37 37 36 35 34 34 34 34 35 36 37 39 41 43 44 45 45 45 45 46 47 48 48 48 47 44 40 36 32 29 27 27 25 25 25 25 26 27 28 25 20 16 15 16 18 21 25 27 27 27 28 30 32 32 32 32 32 33
46 48 44 42 41 39 38 39 39 38 38 37 36 35 35 35 36 38 38 35 33 33 33 33 33 34 35 36 36 36 35 34 33 33 34 35 37 39 40 42 44 45 46 46 46 47 47 48 49 48 47 44 41 37 33 29 28 29 29 28 27 27 27 27 28 28 26 21 18 19 21 23 24 25 26 26 26 29 32 33 33 33 32 33 33
46 47 47 44 42 40 38 38 38 37 37 36 35 36 37 38 39 41 39 35 34 34 34 33 32 31 32 33 34 35 35 34 33 33 33 36 38 40 41 42 43 44 44 45 45 46 47 48 48 46 44 41 39 35 32 30 27 28 31 31 29 27 27 28 29 29 26 23 23 25 28 30 29 28 29 29 28 30 30 30 30 30 30 31 31
45 48 48 43 40 41 40 39 40 39 39 38 38 39 39 39 39 39 38 36 36 36 36 36 34 32 31 30 31 33 34 34 34 34 34 36 38 39 41 42 42 42 42 42 42 43 45 46 46 45 42 39 35 32 31 32 31 28 30 32 31 29 28 29 31 31 29 28 28 29 31 32 32 31 33 32 28 27 27 28 29 29 30 31 31
44 49 47 42 40 41 41 40 40 41 42 42 43 42 40 39 39 38 38 38 38 38 38 37 35 33 31 30 31 32 33 35 35 36 36 37 38 39 40 40 40 39 38 38 39 41 43 46 46 44 40 35 31 29 29 32 35 31 29 31 31 30 31 32 33 33 32 32 31 31 31 31 30 30 30 28 25 24 26 29 31 32 33 33 33
43 47 47 44 43 44 44 43 42 42 44 45 44 43 40 39 40 38 38 39 40 40 39 38 36 34 32 32 32 32 33 35 36 37 37 38 38 39 38 36 35 34 34 36 37 40 44 46 43 39 35 31 27 26 27 29 34 34 31 32 32 31 31 33 34 34 34 35 36 36 36 35 34 32 29 28 28 28 30 32 33 34 34 35 35
46 45 46 46 46 48 47 46 45 44 44 44 43 41 41 40 39 37 38 40 42 41 40 39 38 36 35 34 34 33 33 33 34 35 36 37 37 36 34 32 31 31 32 34 37 41 43 41 36 34 32 29 26 25 25 26 31 36 34 32 34 34 33 33 34 35 36 37 39 39 39 38 38 36 33 31 31 31 32 33 34 35 35 36 36
50 45 43 45 47 49 50 51 51 48 46 45 43 42 41 42 41 39 39 40 40 40 40 39 38 38 38 37 36 35 34 33 33 33 34 35 36 35 33 31 30 31 32 34 37 39 38 34 31 32 32 30 28 25 24 24 27 34 37 36 35 37 37 36 35 36 37 38 40 40 40 40 39 38 37 36 35 35 35 36 37 37 38 38 38
52 48 45 44 44 45 47 49 51 51 48 46 46 45 44 46 46 43 41 40 39 39 39 38 38 38 39 39 39 38 36 34 33 33 34 35 35 34 33 31 31 31 31 33 36 37 34 31 30 31 31 31 29 27 25 24 24 29 36 40 39 39 39 38 38 37 37 38 40 41 42 43 42 42 41 40 40 40 40 40 40 39 39 39 39
53 52 51 48 45 45 46 47 49 50 49 47 47 46 46 48 49 47 44 42 41 41 40 40 40 41 42 42 42 40 39 37 35 33 34 34 34 33 33 31 30 30 30 32 34 33 31 30 30 30 30 30 29 28 27 26 25 25 30 37 42 43 42 41 40 39 39 39 39 41 42 43 43 43 43 44 44 45 46 46 45 43 42 41 41
54 54 53 53 51 48 48 48 49 50 50 48 47 46 47 47 48 48 47 46 44 44 43 43 44 44 44 44 43 42 40 39 37 35 34 34 34 33 32 31 30 30 31 31 30 29 28 28 29 29 28 28 28 28 27 27 27 27 27 31 37 42 45 45 45 44 44 43 43 43 44 45 46 47 47 47 48 49 49 49 49 48 47 45 44
55 53 52 53 53 51 49 48 48 50 50 50 48 47 46 46 47 48 48 48 47 46 45 45 44 43 43 43 43 42 40 39 37 35 35 35 34 33 31 30 30 31 30 28 27 27 27 27 28 27 27 27 27 27 27 27 27 28 29 30 32 36 41 44 46 47 48 48 47 47 47 48 49 49 49 49 49 49 50 50 50 49 48 47 45
Wind_Direction
281 281 281 282 283 283 284 285 286 287 288 289 290 292 293 294 294 295 295 296 297 299 300 301 302 303 304 305 306 306 308 308 309 310 310 311 312 312 313 314 314 314 314 315 316 315 315 313 313 314 316 316 313 312 312 315 319 319 316 314 314 314 315 314 313 310 305 300 297 298 297 295 291 283 278 275 274 274 274 274 272 268 266 265 266
281 281 281 282 282 283 284 284 286 287 288 289 290 291 292 293 294 294 295 296 297 299 300 301 302 303 304 305 305 306 307 308 308 309 309 310 312 312 313 313 312 312 312 313 314 312 311 312 312 313 314 314 312 311 313 316 319 317 315 314 314 315 315 314 314 312 308 304 300 298 295 293 289 281 275 273 272 273 273 272 268 264 263 262 265
279 280 281 281 282 282 283 284 285 286 287 289 290 291 291 292 293 293 295 296 297 298 299 301 302 303 304 304 305 306 306 307 308 308 309 310 312 312 311 311 310 310 311 311 311 310 310 311 312 313 313 313 311 311 314 317 317 315 314 314 314 314 314 314 313 312 310 306 302 298 294 291 287 279 273 271 270 271 271 268 263 260 260 260 264
278 279 280 281 281 282 283 284 285 286 287 288 289 290 290 291 292 293 295 296 297 298 299 300 301 302 303 304 304 305 306 306 307 308 309 310 310 310 308 309 308 308 309 310 310 310 310 311 313 313 313 313 311 313 315 317 316 314 314 313 314 315 314 313 312 311 308 304 301 297 294 290 285 277 272 270 269 269 268 264 259 258 257 258 261
278 278 279 280 281 282 283 284 285 286 287 287 288 289 290 290 292 293 295 296 297 297 298 299 300 301 302 303 304 304 305 306 307 307 307 307 307 307 307 307 307 308 308 309 309 309 310 311 312 312 312 311 311 314 316 316 315 313 313 314 316 315 314 313 311 310 307 302 299 296 293 289 282 275 271 268 267 268 265 260 256 256 255 257 259
278 278 279 280 281 282 283 284 285 285 286 287 287 288 289 291 292 294 295 295 296 296 297 298 299 300 301 302 302 303 305 306 306 305 305 305 305 306 307 308 308 308 308 308 308 309 309 310 311 311 311 311 312 314 315 314 313 312 313 315 316 316 315 313 311 310 306 303 298 295 292 287 279 273 269 266 266 266 262 257 254 253 253 255 257
278 278 279 280 280 281 282 283 284 285 285 286 287 288 290 291 293 293 294 295 295 295 296 297 298 299 300 301 302 303 304 304 303 302 303 304 305 307 308 307 308 309 308 307 307 308 309 309 311 311 311 311 313 314 314 312 311 312 313 315 317 317 317 315 314 311 308 304 299 294 291 284 276 269 266 265 266 264 259 254 252 251 252 254 256
277 278 279 279 280 281 282 283 283 284 285 286 287 288 290 291 292 292 293 294 294 294 295 296 297 298 299 301 302 303 302 301 301 301 302 303 305 306 306 307 308 308 307 306 307 307 308 309 310 311 311 312 314 313 312 310 310 311 313 314 316 317 318 318 316 314 310 305 300 294 290 283 272 265 263 265 266 262 256 252 251 251 251 252 255
277 278 278 279 280 280 281 282 283 284 285 286 287 288 290 290 291 292 293 293 293 293 294 296 297 298 299 301 301 300 300 300 301 301 302 303 304 305 307 307 307 307 307 306 306 307 307 309 310 310 311 313 313 311 309 309 310 310 311 312 313 314 317 318 318 315 311 307 301 294 289 281 268 262 263 265 265 259 253 251 250 250 250 251 255
276 277 278 279 280 281 282 283 284 285 286 287 288 289 290 290 291 291 292 292 292 293 294 296 297 298 299 299 298 299 300 301 301 301 302 303 303 305 307 307 305 306 307 306 306 307 308 309 309 310 312 313 311 309 308 308 308 307 308 310 312 314 317 318 317 315 311 307 301 294 287 278 265 261 264 266 264 256 251 250 249 249 249 251 256
275 276 277 279 281 282 283 284 286 287 288 290 291 291 291 291 291 291 291 292 292 293 295 297 298 298 297 297 298 299 300 301 302 302 302 302 303 306 306 304 303 305 306 306 307 307 307 308 308 310 312 310 308 307 306 306 305 305 306 310 314 318 320 319 317 314 310 306 301 293 285 275 262 258 263 267 264 256 252 251 250 248 248 251 256
275 276 278 281 284 286 286 287 288 290 292 293 293 294 293 292 291 291 291 291 292 294 296 297 297 296 296 297 298 298 299 300 301 302 302 302 303 305 304 303 303 305 306 306 306 306 306 306 308 310 310 308 306 304 304 303 303 304 305 309 315 320 321 320 317 312 308 305 299 292 284 274 261 256 259 264 265 257 254 254 251 247 246 250 257
276 277 279 282 285 287 288 288 287 290 293 293 292 293 292 292 290 289 290 291 294 296 296 296 296 295 295 296 297 297 298 299 300 300 301 302 303 303 303 303 304 305 305 305 304 304 304 306 308 309 307 305 303 301 301 302 302 302 304 309 315 321 321 320 317 311 308 304 297 291 285 276 263 255 256 260 264 260 256 256 253 248 247 250 257
276 277 279 280 281 281 283 284 282 285 289 288 288 290 291 291 290 289 289 292 295 297 297 296 295 295 295 296 297 297 298 299 299 300 301 301 301 302 302 303 305 304 304 303 303 303 305 306 307 306 304 302 300 298 298 299 299 300 305 309 315 321 321 319 315 312 310 302 294 290 286 280 269 257 254 257 260 259 258 258 255 250 248 252 257
276 277 277 278 278 277 278 280 279 281 284 283 283 285 288 289 289 288 289 293 295 296 297 296 295 295 296 297 298 299 299 300 301 301 301 300 301 301 301 303 304 303 302 301 301 303 305 304 304 303 301 299 297 296 297 297 297 300 306 310 315 320 321 317 315 315 311 301 293 289 285 281 275 264 256 256 257 257 258 258 256 251 249 253 258
276 276 276 277 277 277 278 279 279 280 282 281 280 282 285 287 287 287 289 293 295 295 295 296 296 297 297 298 299 299 299 300 301 301 300 299 299 299 301 302 302 301 300 299 300 303 303 301 302 301 299 296 294 295 296 296 295 301 308 312 315 320 320 316 315 318 314 302 292 287 282 278 275 269 260 256 255 256 257 258 257 251 248 252 258
275 276 276 277 277 277 277 278 279 279 280 280 280 281 283 285 286 287 290 292 293 293 295 297 298 298 298 298 298 297 298 299 300 299 298 297 297 298 299 300 300 299 297 298 300 301 301 300 301 299 298 295 295 297 297 296 295 303 311 313 315 319 319 316 315 319 317 304 292 285 279 276 273 270 264 256 254 254 256 258 257 251 247 251 258
275 276 276 277 277 277 277 278 279 280 281 282 282 283 284 286 287 288 290 291 291 292 295 297 299 298 296 296 295 295 296 297 297 295 295 294 295 296 297 298 298 296 296 298 299 301 300 300 300 298 298 296 298 300 298 295 295 306 314 313 314 316 316 316 315 319 319 307 294 287 279 276 271 269 267 260 255 253 254 256 255 250 249 253 258
275 276 276 277 277 277 278 279 280 281 282 283 284 285 286 287 287 288 289 289 290 293 295 297 297 296 294 294 293 293 294 294 294 292 292 293 294 295 296 296 295 294 295 297 299 301 301 300 299 299 298 298 301 301 297 294 294 307 315 311 311 314 315 317 315 317 319 311 299 291 282 276 271 268 268 264 257 254 253 254 253 250 251 255 258
275 276 276 277 277 277 278 279 280 281 283 284 286 287 287 287 287 287 287 289 291 293 295 296 296 294 294 293 293 293 292 292 292 291 291 292 293 294 294 294 292 293 294 297 301 301 300 300 298 299 300 301 302 299 296 293 295 307 314 309 309 313 315 317 315 315 317 313 304 295 285 278 273 268 268 266 259 255 254 253 252 251 252 255 257
275 276 276 277 277 278 279 279 281 282 284 286 287 287 287 286 286 286 287 289 291 293 294 295 295 294 294 294 293 293 292 291 291 291 290 290 291 291 292 292 293 293 294 297 300 299 299 299 298 301 302 303 301 296 293 294 298 308 312 308 309 312 315 318 316 311 311 311 307 299 290 282 275 268 266 266 261 255 252 252 252 251 251 253 254
276 276 276 277 277 278 279 280 282 284 285 286 287 287 286 285 285 287 289 290 291 293 294 294 294 294 293 293 292 292 292 292 292 291 289 288 288 288 290 292 294 295 295 296 297 297 297 297 299 301 302 302 298 294 292 294 301 309 311 306 306 310 314 317 314 308 306 309 309 300 291 285 277 268 264 264 262 257 253 251 249 248 248 250 251
276 277 277 277 277 278 280 281 283 285 286 286 286 285 284 285 287 288 289 290 292 293 294 294 294 294 292 290 291 291 292 292 291 290 288 287 286 287 290 294 296 297 295 296 296 296 297 297 297 299 300 299 296 294 292 293 300 307 309 303 301 306 311 314 311 305 304 308 307 298 289 285 277 269 264 262 262 258 254 250 246 245 244 246 249
277 277 277 277 278 279 281 283 284 284 285 284 283 282 283 286 287 287 289 290 291 292 293 293 294 294 292 290 291 292 293 292 291 290 289 288 288 290 293 296 298 297 295 298 299 298 298 297 296 297 298 296 295 295 291 291 298 305 306 299 298 305 309 310 307 302 302 305 305 297 289 283 277 270 265 262 261 258 254 250 247 246 245 246 247
276 276 276 277 278 280 282 283 283 283 283 281 281 282 284 285 285 286 288 288 289 291 293 293 293 291 290 290 289 288 287 288 290 292 291 291 294 296 298 299 297 295 296 299 300 299 299 298 298 297 297 296 295 295 290 288 295 301 301 298 300 304 305 303 300 296 297 301 300 295 288 283 277 270 266 264 262 259 254 250 250 250 249 249 249
273 274 277 279 281 282 282 282 283 282 280 279 281 283 284 284 284 285 286 287 288 290 292 293 292 289 287 287 285 282 279 282 287 290 292 295 298 298 297 296 292 290 294 298 299 298 298 299 299 297 297 297 295 293 289 287 292 298 297 298 299 299 301 300 296 293 293 296 294 290 286 282 276 268 264 264 261 258 256 254 254 253 254 254 254
271 272 276 279 282 283 282 282 282 280 279 279 281 283 283 283 283 284 285 286 288 290 291 291 290 288 287 284 281 279 277 279 283 286 290 294 295 294 292 290 288 288 292 297 298 298 299 299 298 297 297 296 293 291 288 286 291 295 295 296 297 299 302 300 295 291 290 291 288 284 281 278 273 265 260 262 261 258 257 257 256 255 255 257 259
272 272 273 273 275 277 279 280 279 279 279 280 281 282 282 282 283 284 286 287 289 290 289 289 289 287 286 282 277 277 276 277 281 286 289 290 289 288 287 286 287 289 292 296 298 299 300 298 296 296 296 295 294 292 290 289 292 295 294 294 296 299 300 295 289 285 284 284 282 276 275 274 271 264 258 258 260 259 259 260 260 259 259 260 263
272 272 272 271 272 273 276 277 276 276 278 280 282 281 281 282 282 284 287 288 288 288 287 288 288 285 283 279 276 276 277 278 284 290 291 290 288 284 283 284 286 290 293 295 297 299 299 297 296 295 294 295 297 296 295 294 293 295 296 295 295 295 291 285 280 276 276 278 276 272 273 273 272 268 262 258 260 263 263 263 263 264 264 265 266
272 272 272 272 271 272 274 275 275 276 279 281 281 282 283 282 283 285 286 287 286 285 285 286 286 282 278 277 277 278 279 283 289 293 292 291 289 284 282 284 287 290 293 294 297 299 298 296 294 292 290 291 294 295 296 297 296 298 299 297 293 289 285 279 273 269 271 273 272 271 274 273 272 272 269 264 263 266 268 267 267 267 267 267 266
271 272 272 272 272 274 274 274 275 277 279 280 280 282 283 283 285 286 285 283 283 284 284 285 284 280 275 277 280 280 283 287 290 291 291 290 288 284 282 284 287 289 291 292 295 297 295 293 291 288 287 288 289 292 296 300 302 302 301 296 289 284 280 274 268 266 267 270 271 272 272 270 269 270 269 267 264 264 266 267 267 267 266 265 265
271 272 273 274 275 275 275 275 274 275 277 277 278 281 282 282 284 284 282 281 282 283 283 283 283 280 278 280 283 284 286 288 289 290 290 290 287 284 282 283 286 287 289 291 293 294 290 288 288 286 286 288 290 294 299 303 304 303 298 292 284 280 277 271 266 266 267 268 269 270 267 264 263 266 268 267 264 263 265 267 269 270 268 267 266
271 272 274 275 276 276 275 274 274 274 275 274 276 280 280 281 282 282 282 283 283 282 282 282 282 282 282 283 285 287 287 288 288 289 290 289 286 284 282 283 285 286 288 290 291 289 287 286 286 287 289 292 296 299 302 305 303 299 293 287 280 277 274 269 266 267 267 267 267 263 258 257 258 262 266 267 266 266 266 269 272 274 274 272 270
272 274 275 276 276 275 275 274 274 274 274 275 277 279 278 279 279 281 283 283 283 283 283 283 283 283 284 285 287 288 288 287 288 288 288 287 285 284 284 284 284 285 285 287 287 286 285 285 288 291 294 299 302 303 305 305 301 295 289 282 277 274 272 271 270 265 261 261 262 259 256 257 258 260 263 266 268 268 268 269 270 273 274 274 273
274 275 276 276 275 275 274 274 274 275 276 277 277 276 276 277 279 281 282 283 283 284 283 283 282 282 283 285 287 288 288 288 288 287 285 283 283 282 282 281 280 280 281 282 283 282 283 286 290 296 300 304 305 306 306 303 298 292 285 278 273 270 267 268 268 262 259 261 263 264 263 262 262 261 262 264 267 270 270 271 272 272 273 275 277
276 277 276 276 275 274 273 273 275 276 277 276 275 274 275 277 279 281 282 283 284 284 282 281 281 282 284 285 287 287 286 286 286 284 282 281 280 279 278 277 277 278 279 280 280 282 285 288 293 300 304 306 306 306 305 300 295 290 281 273 268 264 260 260 259 257 261 265 268 270 270 269 268 267 267 268 270 270 271 272 274 275 277 280 282
278 278 276 274 273 273 273 274 276 276 276 275 275 275 277 279 280 281 282 283 284 285 284 282 281 282 283 284 284 284 284 283 282 281 281 280 279 278 278 278 279 279 279 279 279 283 288 291 295 301 305 307 306 305 302 296 292 286 276 267 263 260 258 256 253 254 256 251 254 264 269 267 265 270 274 273 271 271 273 275 277 279 282 285 288
280 277 271 270 270 271 272 274 276 276 275 276 277 278 280 282 282 282 282 283 284 286 287 284 282 282 282 281 281 280 279 279 279 279 279 279 278 278 278 279 279 278 277 277 278 282 288 292 296 301 305 307 304 302 299 293 287 280 269 263 260 257 255 254 252 251 247 243 252 266 273 269 264 269 275 273 272 272 274 278 282 284 286 288 290
277 271 266 266 266 266 267 267 270 273 273 275 278 278 278 280 280 280 282 283 286 289 290 288 285 283 281 280 279 277 276 275 275 275 274 274 274 275 276 276 276 275 276 277 279 283 288 293 296 300 304 306 302 298 293 287 279 269 263 261 257 251 248 251 252 248 245 252 263 265 268 269 265 265 270 271 271 273 276 282 285 285 284 286 289
261 261 262 261 259 261 264 266 271 272 272 275 277 274 275 278 278 280 284 287 290 296 297 293 289 286 283 281 279 276 275 274 274 273 271 269 270 271 272 272 273 274 276 279 282 286 290 294 297 299 302 303 299 292 284 277 269 259 256 257 254 251 249 250 250 249 249 252 253 247 248 258 264 266 271 274 273 274 279 284 283 282 282 284 288
246 253 257 257 258 263 269 271 272 272 272 274 274 273 278 282 281 284 288 289 292 298 300 301 299 294 289 285 282 279 277 275 274 273 270 267 266 266 268 270 272 275 277 281 285 290 294 297 299 300 301 300 295 286 274 264 259 252 249 252 252 252 253 251 248 247 248 247 240 240 245 252 260 264 267 272 276 279 282 283 281 280 281 283 285
242 250 252 254 260 265 268 269 270 270 271 271 270 273 280 284 284 283 285 288 291 295 297 301 305 303 298 292 286 283 280 276 273 270 267 265 265 266 267 269 273 277 281 285 290 295 299 301 302 303 302 299 293 282 267 253 249 249 247 249 250 249 250 247 244 242 241 239 236 238 245 253 259 261 261 265 272 276 278 277 277 278 279 281 285
240 247 251 254 258 263 265 265 265 267 269 269 270 275 279 282 283 281 280 284 289 291 293 298 301 304 304 300 293 288 284 280 275 270 267 265 266 267 268 271 275 281 287 291 296 300 303 305 305 304 301 297 289 278 264 248 241 245 246 248 248 245 243 242 241 242 238 234 236 243 251 258 261 264 267 269 270 268 268 270 273 274 277 282 286
238 244 249 250 252 258 261 260 260 263 267 268 270 274 276 276 279 281 280 283 287 289 292 296 299 302 305 305 302 296 290 285 280 275 271 268 267 267 270 274 280 287 293 297 300 304 306 307 305 302 299 294 286 277 267 251 240 241 244 244 245 242 240 240 241 242 238 234 238 247 255 260 262 265 268 267 263 259 263 272 275 275 277 281 284
234 239 243 243 244 250 255 257 258 260 262 264 265 268 271 274 277 281 282 284 286 288 291 295 298 300 303 306 306 302 297 292 287 283 279 274 270 269 273 279 286 293 298 302 304 306 307 306 303 301 298 295 289 279 273 259 244 242 245 243 242 241 240 240 242 243 242 240 242 248 255 260 263 264 262 261 263 265 269 275 277 278 280 282 284
232 236 238 239 241 245 250 253 256 258 258 259 261 263 268 272 275 279 282 283 285 288 290 292 295 297 299 303 304 301 299 296 292 288 285 280 275 273 276 283 291 298 303 306 308 307 306 305 302 300 298 296 292 283 277 267 251 244 246 247 246 244 242 242 242 243 244 246 247 250 253 256 259 261 261 263 269 271 272 275 277 280 282 283 284
230 233 236 240 242 245 248 250 252 255 256 257 259 261 265 269 272 277 281 283 285 286 288 289 292 294 296 299 300 299 299 297 293 289 286 282 278 277 279 286 294 301 306 308 308 309 309 306 302 299 297 296 293 287 279 273 260 249 247 249 249 248 246 245 244 246 247 248 249 250 251 254 257 261 264 267 271 274 276 279 281 284 286 287 287
229 232 235 239 242 246 249 249 250 253 255 258 258 259 262 265 269 274 280 282 282 283 285 287 290 292 294 296 297 298 298 297 295 291 289 287 283 282 284 290 299 303 306 308 309 311 312 309 303 299 297 295 293 289 283 277 270 258 251 250 252 251 249 248 248 248 250 251 251 252 252 255 258 262 266 269 272 276 279 283 285 287 287 287 287
229 233 235 238 243 249 251 251 251 252 255 259 260 259 261 263 266 272 277 280 282 282 284 286 288 290 292 295 295 295 296 297 296 293 291 290 289 287 289 294 299 302 305 308 309 313 315 312 307 302 299 297 294 291 287 281 276 269 260 255 255 256 255 254 252 251 251 253 255 256 257 259 261 264 268 272 274 277 279 282 284 285 285 285 283
230 233 235 238 243 248 252 252 252 253 255 259 261 261 263 264 266 271 275 279 281 283 285 286 288 290 293 295 294 293 293 294 295 295 292 291 290 290 291 294 296 300 304 307 309 315 318 316 312 307 302 300 298 294 291 288 282 278 271 263 260 260 260 259 259 259 259 260 262 263 265 266 268 269 272 274 276 278 279 281 282 283 283 283 281
228 232 236 238 242 247 252 254 255 256 257 259 260 262 264 266 268 271 274 278 280 282 283 286 288 290 293 293 291 291 292 292 292 292 291 290 289 288 288 290 293 298 302 303 307 314 318 320 320 315 308 303 301 299 296 294 290 286 282 276 270 266 264 264 264 264 266 267 269 271 273 273 274 275 276 277 278 280 281 282 282 283 283 282 280
Height
10900 10901 10899 10898 10897 10896 10895 10895 10894 10893 10892 10892 10891 10890 10889 10888 10887 10886 10884 10882 10881 10880 10879 10878 10876 10874 10873 10870 10868 10866 10863 10861 10860 10858 10856 10854 10853 10851 10849 10847 10845 10843 10841 10839 10837 10834 10832 10830 10828 10825 10823 10821 10819 10816 10813 10810 10807 10804 10801 10799 10796 10793 10791 10789 10786 10784 10781 10779 10777 10776 10774 10772 10771 10770 10769 10769 10769 10770 10770 10771 10772 10772 10773 10774 10775
10897 10896 10895 10894 10893 10892 10891 10891 10890 10889 10888 10888 10887 10886 10885 10884 10883 10882 10880 10879 10878 10876 10875 10873 10872 10870 10868 10866 10864 10861 10859 10857 10855 10854 10851 10850 10848 10846 10844 10843 10841 10838 10836 10835 10833 10831 10828 10826 10824 10821 10819 10817 10815 10812 10809 10806 10803 10800 10797 10795 10792 10790 10787 10785 10783 10780 10778 10775 10773 10772 10770 10768 10767 10767 10766 10766 10766 10766 10767 10768 10769 10770 10770 10771 10772
10894 10891 10890 10889 10888 10888 10887 10886 10886 10885 10884 10884 10883 10882 10881 10880 10879 10878 10877 10875 10874 10872 10870 10869 10868 10866 10863 10861 10859 10857 10855 10852 10850 10849 10847 10845 10843 10841 10839 10838 10836 10834 10832 10830 10829 10827 10824 10822 10820 10817 10815 10813 10811 10809 10806 10802 10799 10796 10793 10791 10788 10786 10784 10781 10779 10777 10774 10772 10770 10768 10766 10764 10764 10763 10763 10763 10763 10763 10764 10765 10766 10767 10768 10768 10769
10891 10888 10886 10885 10884 10883 10882 10882 10881 10881 10880 10879 10878 10877 10876 10875 10875 10874 10873 10872 10870 10868 10866 10865 10864 10861 10859 10857 10855 10853 10850 10848 10846 10844 10842 10840 10838 10837 10835 10834 10832 10830 10828 10826 10824 10822 10820 10818 10816 10813 10811 10810 10808 10805 10802 10799 10795 10792 10789 10787 10784 10782 10780 10778 10776 10773 10771 10768 10766 10764 10762 10761 10760 10760 10760 10760 10760 10761 10762 10763 10763 10764 10765 10766 10767
10886 10884 10882 10880 10879 10878 10877 10877 10877 10876 10875 10874 10874 10873 10872 10871 10871 10870 10869 10867 10866 10863 10861 10860 10859 10857 10855 10853 10850 10848 10846 10844 10841 10839 10838 10836 10834 10832 10831 10829 10827 10825 10824 10821 10819 10818 10816 10814 10811 10809 10807 10806 10804 10801 10798 10795 10792 10788 10786 10784 10781 10779 10777 10774 10772 10770 10768 10765 10763 10761 10759 10758 10757 10757 10757 10757 10758 10759 10759 10760 10761 10762 10763 10763 10764
10880 10879 10878 10876 10874 10873 10873 10872 10872 10871 10870 10869 10869 10868 10867 10867 10867 10866 10865 10863 10861 10859 10857 10855 10854 10853 10851 10849 10846 10844 10841 10839 10837 10835 10833 10832 10830 10828 10826 10824 10823 10821 10819 10817 10815 10813 10812 10810 10807 10805 10803 10802 10799 10797 10794 10791 10788 10786 10783 10781 10778 10776 10774 10771 10769 10767 10764 10762 10760 10758 10756 10755 10755 10755 10755 10755 10756 10757 10757 10758 10759 10760 10760 10761 10762
10874 10874 10873 10871 10869 10868 10868 10868 10867 10866 10865 10864 10864 10864 10863 10863 10863 10862 10860 10858 10856 10854 10852 10850 10849 10848 10847 10845 10842 10840 10837 10835 10833 10830 10829 10827 10825 10823 10822 10820 10818 10816 10814 10812 10811 10809 10808 10806 10802 10801 10800 10798 10795 10793 10790 10788 10785 10783 10780 10778 10776 10773 10771 10769 10766 10764 10762 10759 10757 10756 10754 10753 10753 10753 10753 10753 10754 10755 10755 10756 10757 10757 10758 10759 10759
10870 10868 10867 10865 10864 10863 10863 10863 10862 10861 10861 10860 10860 10859 10859 10859 10858 10857 10856 10854 10852 10850 10847 10846 10845 10843 10842 10840 10838 10836 10833 10831 10829 10826 10824 10823 10821 10819 10817 10816 10814 10812 10810 10808 10807 10805 10803 10801 10798 10797 10796 10794 10792 10789 10787 10784 10782 10780 10777 10775 10773 10771 10769 10766 10764 10761 10759 10757 10755 10754 10752 10751 10751 10751 10751 10752 10752 10753 10753 10754 10755 10755 10756 10757 10757
10865 10863 10860 10859 10858 10858 10858 10858 10858 10857 10856 10856 10855 10855 10855 10854 10853 10852 10851 10849 10848 10845 10843 10841 10840 10838 10836 10835 10833 10831 10829 10827 10825 10822 10820 10819 10817 10815 10813 10811 10810 10808 10806 10804 10802 10800 10799 10797 10795 10793 10792 10790 10788 10785 10783 10781 10779 10776 10774 10772 10770 10768 10766 10764 10761 10759 10757 10755 10753 10752 10750 10750 10749 10749 10750 10750 10750 10751 10751 10752 10753 10753 10754 10755 10755
10859 10857 10855 10854 10854 10854 10854 10854 10853 10852 10852 10851 10850 10851 10850 10849 10848 10847 10846 10845 10843 10841 10838 10837 10835 10833 10831 10830 10828 10826 10824 10823 10820 10818 10817 10815 10813 10811 10809 10807 10806 10804 10802 10799 10798 10796 10794 10793 10791 10790 10789 10787 10785 10782 10780 10778 10776 10774 10771 10769 10767 10766 10763 10761 10759 10757 10754 10752 10751 10749 10749 10748 10748 10748 10748 10748 10749 10749 10749 10750 10751 10751 10752 10753 10753
10852 10851 10850 10851 10851 10851 10850 10850 10849 10847 10847 10846 10846 10846 10845 10844 10843 10843 10842 10840 10838 10836 10834 10832 10830 10828 10826 10824 10823 10821 10820 10818 10816 10814 10813 10811 10809 10808 10806 10803 10801 10800 10797 10795 10793 10791 10790 10789 10787 10786 10785 10784 10782 10779 10777 10775 10773 10771 10768 10766 10765 10763 10761 10759 10757 10754 10752 10750 10749 10747 10747 10746 10746 10746 10746 10746 10747 10747 10748 10748 10749 10750 10750 10751 10751
10845 10846 10847 10847 10848 10847 10846 10845 10843 10842 10842 10841 10841 10841 10840 10839 10838 10838 10837 10835 10833 10831 10829 10827 10825 10823 10821 10819 10818 10816 10815 10814 10812 10810 10809 10807 10805 10804 10802 10799 10797 10795 10793 10790 10789 10787 10786 10786 10784 10783 10782 10781 10779 10776 10774 10772 10770 10767 10765 10763 10762 10761 10759 10757 10755 10752 10750 10748 10747 10745 10744 10744 10744 10744 10744 10744 10745 10745 10746 10746 10747 10748 10748 10749 10749
10841 10842 10843 10844 10845 10843 10841 10840 10838 10837 10837 10837 10837 10836 10836 10835 10834 10833 10832 10830 10828 10826 10824 10821 10819 10817 10816 10814 10813 10811 10810 10809 10808 10806 10804 10802 10801 10800 10798 10795 10793 10791 10789 10786 10785 10783 10782 10782 10781 10780 10779 10778 10775 10773 10771 10769 10767 10765 10762 10760 10760 10759 10757 10755 10753 10750 10748 10746 10745 10744 10743 10742 10742 10742 10742 10743 10743 10743 10744 10745 10745 10746 10746 10747 10747
10837 10838 10839 10840 10840 10838 10837 10835 10834 10833 10833 10834 10833 10832 10832 10831 10830 10829 10827 10825 10823 10820 10818 10815 10813 10812 10811 10809 10807 10806 10805 10804 10803 10801 10799 10797 10796 10795 10794 10791 10789 10787 10785 10783 10781 10780 10779 10778 10778 10777 10776 10774 10772 10770 10769 10767 10764 10762 10759 10757 10757 10758 10755 10752 10751 10748 10746 10744 10743 10742 10741 10740 10740 10740 10740 10741 10741 10741 10742 10742 10743 10744 10744 10745 10745
10833 10834 10834 10834 10834 10833 10832 10830 10829 10828 10829 10829 10828 10827 10827 10827 10826 10824 10822 10819 10817 10814 10812 10810 10808 10807 10806 10804 10803 10801 10801 10800 10798 10796 10794 10793 10792 10791 10789 10787 10785 10783 10781 10779 10778 10777 10775 10775 10774 10774 10772 10770 10768 10767 10765 10763 10761 10759 10756 10754 10755 10756 10754 10750 10748 10747 10744 10742 10741 10740 10739 10739 10738 10738 10738 10739 10739 10739 10740 10740 10741 10741 10742 10743 10743
10827 10828 10828 10828 10828 10827 10825 10823 10823 10823 10823 10824 10823 10823 10823 10822 10820 10818 10816 10814 10811 10809 10806 10805 10803 10802 10801 10799 10798 10797 10796 10795 10793 10791 10790 10788 10787 10786 10785 10783 10781 10779 10777 10775 10775 10774 10772 10771 10770 10770 10768 10766 10765 10764 10762 10760 10759 10757 10754 10751 10753 10754 10752 10748 10746 10745 10743 10740 10739 10738 10737 10737 10736 10736 10736 10736 10737 10737 10737 10738 10739 10739 10740 10740 10741
10821 10821 10822 10822 10821 10820 10818 10817 10818 10818 10817 10817 10817 10818 10817 10816 10814 10812 10810 10808 10805 10803 10802 10801 10800 10798 10796 10794 10793 10792 10791 10790 10788 10786 10785 10783 10782 10781 10780 10779 10777 10775 10774 10772 10771 10770 10769 10767 10766 10765 10764 10763 10762 10761 10759 10757 10756 10754 10751 10749 10750 10752 10751 10747 10745 10744 10741 10738 10737 10736 10735 10735 10734 10734 10734 10734 10734 10735 10735 10736 10736 10737 10738 10739 10739
10816 10816 10816 10815 10813 10811 10811 10811 10811 10811 10811 10811 10812 10812 10811 10810 10807 10805 10804 10801 10800 10799 10798 10797 10796 10793 10790 10789 10787 10786 10786 10785 10784 10782 10780 10778 10776 10776 10775 10775 10774 10772 10770 10769 10768 10766 10765 10763 10762 10761 10761 10760 10759 10758 10756 10755 10753 10752 10749 10746 10747 10749 10748 10745 10743 10742 10740 10737 10735 10734 10733 10733 10732 10732 10732 10732 10732 10733 10733 10734 10735 10735 10736 10737 10738
10811 10811 10810 10808 10805 10804 10804 10805 10804 10804 10805 10806 10807 10806 10805 10802 10800 10798 10797 10795 10795 10795 10794 10793 10791 10788 10785 10783 10782 10781 10781 10780 10779 10777 10775 10773 10771 10770 10771 10771 10770 10769 10767 10765 10764 10762 10761 10759 10758 10757 10757 10756 10756 10755 10753 10752 10750 10749 10746 10744 10744 10745 10745 10744 10741 10739 10738 10735 10733 10732 10731 10730 10730 10731 10731 10731 10731 10731 10732 10732 10733 10734 10735 10735 10736
10805 10805 10803 10800 10797 10797 10798 10798 10798 10799 10800 10801 10801 10800 10798 10795 10793 10791 10790 10791 10791 10791 10789 10787 10784 10782 10779 10777 10776 10776 10775 10775 10774 10772 10770 10768 10767 10765 10766 10767 10766 10765 10763 10761 10760 10757 10757 10756 10754 10754 10753 10752 10752 10752 10750 10749 10748 10746 10743 10741 10740 10741 10742 10742 10740 10737 10735 10734 10732 10730 10729 10728 10728 10729 10729 10730 10729 10730 10730 10731 10732 10732 10733 10734 10734
10799 10798 10795 10791 10789 10790 10791 10791 10792 10794 10796 10796 10795 10793 10790 10788 10786 10785 10786 10787 10787 10785 10783 10781 10778 10776 10774 10772 10771 10770 10769 10769 10769 10767 10765 10764 10763 10762 10762 10763 10762 10761 10759 10757 10756 10754 10753 10752 10751 10750 10749 10748 10748 10749 10747 10746 10744 10743 10740 10737 10737 10737 10738 10739 10738 10734 10732 10731 10730 10728 10727 10726 10726 10727 10727 10728 10728 10728 10729 10729 10730 10730 10731 10732 10732
10791 10791 10787 10783 10782 10783 10785 10786 10788 10790 10791 10790 10788 10785 10782 10781 10780 10781 10782 10782 10780 10779 10778 10776 10774 10772 10770 10768 10766 10764 10764 10764 10763 10762 10761 10760 10760 10760 10759 10759 10758 10757 10755 10753 10752 10750 10749 10748 10747 10746 10745 10745 10745 10745 10744 10743 10741 10740 10738 10734 10733 10734 10735 10736 10736 10733 10730 10729 10729 10726 10725 10724 10724 10724 10725 10725 10725 10726 10726 10727 10728 10728 10729 10730 10730
10784 10782 10777 10774 10774 10777 10779 10781 10783 10785 10784 10782 10779 10777 10775 10776 10777 10777 10776 10776 10775 10774 10773 10772 10771 10769 10766 10763 10761 10759 10758 10758 10758 10758 10757 10756 10756 10756 10756 10755 10754 10752 10751 10749 10748 10747 10746 10744 10743 10743 10742 10742 10742 10742 10741 10740 10739 10738 10736 10732 10731 10732 10732 10733 10733 10731 10728 10727 10726 10725 10723 10722 10721 10722 10722 10723 10723 10723 10724 10725 10725 10726 10727 10727 10728
10777 10772 10767 10766 10769 10773 10776 10777 10778 10778 10777 10774 10771 10770 10771 10773 10773 10772 10771 10770 10770 10769 10769 10767 10767 10766 10762 10759 10757 10755 10753 10752 10752 10752 10752 10752 10752 10751 10751 10750 10749 10748 10747 10745 10744 10743 10742 10741 10740 10740 10739 10739 10739 10738 10738 10737 10736 10736 10733 10729 10728 10730 10730 10730 10729 10728 10726 10725 10724 10723 10721 10720 10719 10719 10720 10720 10721 10721 10722 10722 10723 10724 10725 10725 10726
10768 10762 10759 10761 10765 10769 10772 10772 10772 10772 10769 10766 10765 10766 10768 10769 10768 10766 10766 10765 10765 10765 10764 10763 10763 10762 10759 10756 10754 10753 10750 10747 10746 10747 10747 10747 10748 10747 10746 10746 10745 10745 10744 10742 10741 10740 10739 10739 10738 10737 10737 10736 10735 10735 10735 10734 10734 10733 10731 10726 10726 10727 10728 10727 10726 10724 10723 10723 10722 10721 10719 10718 10717 10717 10717 10718 10719 10719 10720 10720 10721 10722 10723 10724 10724
10758 10755 10755 10758 10761 10765 10766 10766 10766 10764 10762 10760 10761 10763 10764 10764 10763 10762 10761 10760 10761 10761 10759 10759 10758 10757 10755 10752 10750 10749 10747 10744 10743 10742 10742 10743 10743 10743 10743 10742 10742 10742 10741 10739 10738 10737 10737 10736 10736 10735 10734 10733 10732 10731 10731 10731 10731 10730 10728 10724 10723 10723 10724 10724 10723 10721 10721 10721 10721 10719 10717 10716 10716 10715 10715 10716 10716 10717 10718 10718 10719 10720 10721 10722 10723
10754 10754 10754 10756 10758 10760 10760 10759 10758 10757 10756 10757 10758 10760 10760 10759 10759 10758 10756 10756 10756 10756 10755 10754 10753 10752 10750 10748 10746 10744 10743 10741 10740 10740 10739 10739 10740 10740 10739 10739 10739 10738 10737 10736 10735 10735 10734 10733 10733 10732 10732 10730 10729 10727 10727 10727 10727 10727 10725 10721 10719 10719 10720 10721 10720 10719 10718 10718 10718 10717 10716 10714 10714 10713 10713 10713 10714 10715 10716 10716 10717 10718 10719 10720 10720
10752 10751 10751 10753 10754 10755 10755 10753 10752 10750 10751 10754 10756 10756 10755 10755 10754 10753 10752 10751 10751 10750 10750 10749 10748 10747 10745 10743 10741 10740 10739 10738 10737 10737 10736 10736 10736 10736 10736 10735 10735 10734 10734 10733 10732 10731 10731 10730 10730 10729 10729 10727 10725 10724 10723 10724 10724 10723 10721 10718 10715 10716 10717 10717 10717 10716 10715 10715 10715 10714 10713 10712 10711 10711 10711 10711 10712 10713 10714 10714 10715 10715 10716 10717 10718
10747 10746 10746 10747 10748 10749 10750 10748 10747 10746 10748 10751 10752 10751 10751 10751 10750 10749 10747 10746 10746 10745 10745 10744 10743 10742 10740 10739 10737 10736 10735 10734 10733 10732 10732 10732 10732 10732 10732 10731 10731 10731 10730 10729 10728 10728 10727 10727 10726 10726 10725 10723 10721 10720 10720 10721 10720 10719 10717 10715 10712 10712 10713 10713 10714 10713 10712 10712 10711 10711 10711 10710 10709 10709 10709 10709 10709 10710 10711 10712 10713 10713 10714 10715 10716
10742 10741 10741 10741 10743 10744 10745 10743 10742 10743 10746 10748 10748 10747 10746 10746 10745 10744 10743 10742 10741 10741 10741 10739 10738 10737 10735 10734 10732 10732 10731 10730 10729 10727 10727 10727 10727 10727 10727 10727 10726 10726 10726 10726 10725 10724 10724 10724 10723 10722 10721 10719 10718 10717 10717 10717 10716 10714 10713 10711 10709 10708 10709 10709 10710 10710 10709 10709 10709 10709 10709 10709 10708 10707 10707 10707 10707 10708 10708 10709 10710 10711 10712 10713 10714
10738 10736 10736 10737 10738 10739 10739 10738 10737 10740 10743 10743 10743 10742 10741 10741 10740 10739 10738 10737 10737 10736 10736 10735 10733 10732 10730 10729 10728 10728 10727 10726 10723 10722 10722 10722 10722 10722 10722 10722 10722 10722 10722 10722 10721 10721 10721 10721 10720 10719 10717 10716 10714 10713 10713 10713 10711 10709 10708 10707 10705 10704 10704 10705 10706 10707 10707 10707 10707 10707 10707 10707 10707 10706 10706 10706 10706 10706 10706 10707 10708 10708 10709 10710 10711
10732 10731 10731 10732 10733 10734 10734 10732 10733 10736 10738 10738 10738 10737 10736 10735 10734 10734 10733 10732 10732 10732 10731 10729 10728 10726 10726 10725 10724 10724 10723 10720 10718 10717 10717 10717 10717 10717 10717 10718 10718 10718 10718 10718 10718 10718 10718 10718 10717 10716 10714 10712 10710 10709 10708 10707 10705 10704 10703 10703 10701 10700 10700 10702 10703 10703 10704 10705 10705 10705 10705 10705 10705 10705 10704 10704 10704 10704 10704 10704 10705 10705 10706 10707 10708
10727 10726 10727 10727 10728 10728 10728 10727 10728 10732 10733 10732 10732 10732 10731 10730 10729 10728 10728 10727 10727 10726 10725 10723 10722 10721 10720 10720 10720 10720 10718 10715 10713 10713 10713 10713 10712 10713 10713 10714 10714 10714 10714 10714 10714 10715 10714 10714 10713 10712 10710 10709 10706 10704 10703 10702 10700 10699 10698 10698 10697 10696 10696 10698 10700 10701 10701 10702 10703 10704 10703 10703 10703 10703 10703 10703 10702 10702 10702 10702 10702 10703 10703 10704 10705
10721 10722 10722 10722 10722 10721 10722 10721 10722 10726 10727 10726 10726 10725 10724 10724 10723 10723 10723 10721 10720 10720 10719 10717 10716 10715 10714 10714 10715 10715 10712 10710 10710 10709 10709 10708 10708 10708 10709 10710 10710 10710 10710 10710 10711 10711 10710 10710 10709 10708 10706 10705 10702 10699 10698 10697 10696 10695 10694 10694 10694 10694 10694 10695 10696 10698 10698 10699 10700 10701 10701 10701 10701 10701 10701 10701 10700 10700 10700 10700 10700 10700 10701 10701 10702
10716 10716 10716 10716 10716 10714 10715 10715 10717 10720 10720 10719 10719 10718 10718 10718 10718 10718 10717 10715 10715 10714 10713 10712 10710 10709 10709 10709 10709 10708 10706 10706 10706 10705 10705 10704 10704 10705 10706 10707 10707 10707 10706 10706 10707 10707 10706 10705 10705 10704 10702 10701 10697 10694 10693 10692 10691 10691 10690 10690 10691 10692 10692 10692 10693 10694 10695 10696 10697 10697 10697 10698 10698 10698 10698 10698 10698 10698 10698 10698 10698 10698 10698 10699 10699
10712 10710 10708 10708 10708 10708 10708 10710 10712 10714 10713 10713 10712 10712 10713 10713 10713 10712 10710 10710 10709 10708 10707 10706 10705 10704 10704 10704 10703 10702 10701 10701 10701 10700 10700 10701 10701 10702 10703 10703 10703 10703 10703 10703 10702 10702 10701 10700 10700 10700 10699 10696 10693 10690 10689 10688 10687 10688 10687 10687 10688 10689 10690 10690 10690 10690 10691 10692 10693 10694 10694 10695 10695 10696 10696 10696 10696 10696 10696 10696 10695 10696 10696 10696 10696
10706 10702 10699 10699 10702 10702 10702 10705 10707 10707 10707 10706 10707 10707 10708 10708 10707 10706 10705 10705 10704 10703 10702 10700 10699 10699 10699 10699 10698 10697 10697 10697 10696 10696 10696 10697 10697 10698 10699 10699 10699 10699 10699 10699 10698 10698 10696 10695 10696 10696 10695 10692 10689 10686 10686 10684 10683 10684 10684 10684 10684 10686 10686 10687 10687 10688 10689 10690 10691 10691 10691 10691 10692 10692 10693 10693 10693 10693 10693 10693 10693 10693 10693 10693 10693
10699 10694 10691 10692 10695 10696 10697 10700 10702 10703 10702 10701 10702 10703 10704 10703 10703 10702 10702 10701 10699 10697 10696 10694 10694 10694 10694 10693 10693 10693 10693 10692 10692 10692 10692 10692 10693 10694 10695 10695 10695 10695 10694 10694 10694 10693 10692 10691 10692 10693 10692 10689 10684 10682 10683 10682 10680 10680 10681 10681 10681 10682 10683 10684 10685 10686 10686 10687 10688 10688 10688 10688 10689 10690 10690 10690 10690 10690 10690 10690 10690 10689 10689 10689 10689
10692 10683 10684 10687 10689 10691 10693 10695 10698 10699 10698 10697 10699 10699 10699 10699 10699 10698 10697 10696 10694 10692 10691 10689 10689 10689 10689 10688 10688 10688 10688 10688 10688 10688 10688 10689 10690 10690 10691 10691 10691 10690 10690 10689 10689 10689 10687 10687 10687 10688 10689 10686 10681 10678 10678 10679 10679 10678 10678 10678 10678 10680 10681 10683 10684 10684 10684 10685 10686 10686 10685 10685 10686 10687 10687 10688 10688 10688 10688 10688 10687 10686 10686 10686 10686
10684 10674 10679 10680 10681 10686 10689 10691 10693 10694 10693 10694 10695 10695 10695 10695 10694 10693 10692 10691 10690 10688 10687 10687 10686 10686 10685 10684 10683 10683 10684 10684 10684 10685 10685 10685 10686 10687 10687 10687 10687 10686 10685 10685 10685 10684 10683 10682 10682 10684 10685 10684 10679 10675 10674 10675 10677 10677 10676 10676 10676 10677 10679 10681 10681 10682 10683 10684 10685 10685 10684 10684 10684 10685 10685 10685 10686 10686 10686 10685 10684 10683 10682 10682 10682
10675 10671 10675 10675 10678 10684 10687 10687 10688 10689 10689 10690 10690 10690 10690 10689 10689 10688 10687 10687 10686 10685 10684 10684 10683 10683 10682 10681 10680 10680 10680 10681 10681 10681 10682 10682 10682 10683 10683 10683 10683 10682 10682 10681 10681 10680 10679 10678 10678 10679 10680 10680 10677 10673 10671 10672 10674 10675 10675 10674 10674 10675 10677 10678 10678 10679 10681 10682 10684 10685 10683 10681 10682 10683 10683 10683 10683 10683 10683 10681 10680 10678 10678 10678 10678
10673 10672 10672 10674 10678 10682 10683 10683 10683 10683 10684 10685 10686 10685 10685 10685 10684 10684 10684 10683 10682 10681 10680 10680 10680 10679 10679 10678 10677 10676 10676 10677 10677 10677 10678 10678 10678 10679 10679 10680 10679 10679 10679 10678 10677 10677 10675 10673 10673 10673 10674 10675 10674 10671 10669 10669 10671 10671 10672 10672 10672 10672 10674 10675 10675 10676 10678 10680 10683 10683 10680 10679 10679 10680 10680 10681 10681 10680 10679 10677 10675 10673 10673 10674 10674
10673 10670 10670 10674 10677 10678 10678 10677 10677 10678 10678 10679 10680 10680 10680 10680 10680 10680 10680 10679 10678 10677 10676 10677 10677 10676 10675 10674 10673 10673 10673 10673 10673 10673 10673 10674 10674 10675 10676 10676 10676 10676 10675 10675 10674 10673 10671 10669 10668 10668 10669 10670 10669 10668 10667 10667 10668 10668 10669 10669 10669 10671 10672 10672 10672 10673 10675 10677 10679 10679 10678 10677 10677 10676 10675 10676 10677 10677 10675 10673 10671 10669 10669 10669 10670
10667 10665 10666 10671 10673 10673 10672 10671 10671 10671 10671 10673 10674 10674 10675 10675 10675 10676 10676 10675 10674 10672 10672 10673 10673 10672 10671 10671 10670 10669 10669 10669 10669 10669 10669 10669 10670 10671 10671 10672 10672 10672 10672 10671 10671 10670 10668 10665 10664 10663 10664 10665 10665 10664 10664 10664 10665 10666 10666 10667 10667 10668 10670 10670 10669 10670 10672 10674 10675 10675 10675 10674 10674 10673 10670 10671 10672 10672 10671 10669 10667 10667 10667 10667 10667
10659 10658 10661 10665 10668 10667 10666 10665 10665 10665 10666 10666 10668 10669 10669 10670 10671 10671 10671 10670 10669 10668 10668 10669 10669 10668 10668 10668 10667 10666 10666 10666 10666 10666 10665 10666 10666 10667 10668 10669 10669 10669 10668 10668 10667 10667 10665 10662 10660 10659 10660 10661 10662 10661 10661 10661 10663 10663 10664 10664 10664 10665 10667 10667 10666 10666 10668 10669 10670 10670 10670 10671 10670 10669 10667 10667 10668 10668 10668 10666 10664 10664 10664 10664 10664
10655 10655 10658 10661 10662 10661 10661 10660 10660 10660 10660 10661 10663 10664 10665 10666 10666 10666 10666 10666 10665 10664 10664 10664 10664 10664 10665 10665 10665 10665 10664 10664 10664 10664 10663 10663 10663 10664 10665 10666 10666 10666 10666 10665 10664 10664 10662 10660 10658 10656 10656 10658 10659 10659 10659 10659 10660 10661 10661 10661 10661 10663 10664 10664 10664 10664 10664 10665 10665 10665 10666 10666 10666 10665 10664 10664 10664 10664 10664 10662 10662 10662 10661 10661 10661
10653 10655 10656 10657 10657 10656 10655 10655 10655 10655 10655 10656 10658 10659 10660 10661 10662 10662 10662 10662 10662 10661 10660 10660 10660 10661 10662 10663 10663 10663 10663 10662 10662 10661 10661 10661 10661 10661 10662 10663 10663 10663 10663 10663 10662 10661 10659 10657 10656 10654 10653 10654 10655 10656 10657 10658 10658 10659 10659 10659 10659 10659 10661 10662 10662 10661 10661 10661 10661 10662 10661 10661 10661 10661 10661 10661 10661 10660 10659 10658 10657 10658 10657 10657 10656
10651 10652 10652 10652 10652 10651 10650 10649 10650 10650 10651 10652 10653 10655 10657 10657 10658 10658 10658 10658 10657 10657 10656 10656 10657 10657 10658 10659 10659 10660 10660 10660 10659 10658 10658 10657 10658 10658 10659 10660 10660 10660 10660 10660 10659 10658 10656 10655 10654 10652 10651 10650 10651 10653 10654 10655 10656 10656 10657 10656 10656 10656 10657 10659 10660 10659 10658 10657 10657 10658 10657 10656 10656 10656 10656 10657 10657 10656 10654 10653 10652 10652 10652 10651 10651
10648 10648 10648 10647 10647 10646 10645 10645 10645 10646 10647 10649 10650 10652 10653 10654 10655 10654 10654 10654 10653 10653 10653 10653 10653 10654 10654 10654 10654 10654 10655 10656 10656 10656 10655 10654 10654 10655 10656 10657 10658 10658 10658 10657 10656 10655 10654 10652 10651 10650 10649 10648 10648 10649 10650 10652 10652 10653 10653 10653 10652 10652 10653 10655 10655 10655 10655 10654 10654 10653 10653 10652 10651 10651 10652 10652 10652 10651 10650 10649 10648 10648 10647 10647 10646
10642 10643 10643 10642 10642 10642 10642 10642 10642 10643 10644 10646 10647 10649 10650 10651 10651 10650 10650 10650 10650 10650 10649 10649 10649 10649 10649 10649 10648 10649 10649 10650 10651 10651 10652 10651 10651 10651 10652 10653 10654 10655 10655 10655 10654 10653 10652 10651 10650 10648 10647 10646 10646 10646 10647 10648 10649 10650 10650 10650 10649 10648 10648 10649 10650 10650 10650 10650 10650 10649 10648 10646 10646 10646 10647 10647 10647 10646 10645 10645 10644 10643 10643 10642 10641
10636 10637 10638 10638 10639 10639 10639 10640 10640 10641 10642 10643 10644 10646 10646 10647 10647 10647 10647 10646 10646 10646 10645 10645 10645 10645 10645 10644 10644 10644 10644 10645 10646 10647 10648 10648 10649 10649 10649 10649 10650 10651 10652 10652 10651 10651 10650 10650 10649 10648 10646 10645 10644 10643 10643 10644 10645 10646 10646 10647 10646 10645 10644 10644 10645 10645 10645 10645 10645 10644 10642 10641 10640 10641 10641 10642 10641 10641 10639 10639 10638 10637 10637 10636 10636